QPF
0.00 0.00 0.00 0.00 0.00 0.00 0.00 0.00 0.00 0.00 0.00 0.00 0.00 0.00 0.00 0.00 0.00 0.00 0.00 0.00 0.00 0.00 0.00 0.00 0.00 0.00 0.00 0.00 0.01 0.00 0.00 0.01 0.11 0.01 0.02 0.01 0.01 0.00 0.02 0.00 0.00 0.00
0.00 0.00 0.00 0.00 0.00 0.00 0.00 0.00 0.00 0.00 0.00 0.00 0.00 0.00 0.00 0.00 0.00 0.00 0.00 0.00 0.00 0.00 0.00 0.00 0.00 0.00 0.00 0.00 0.00 0.01 0.00 0.00 0.05 0.03 0.00 0.01 0.00 0.00 0.00 0.00 0.00 0.00
0.00 0.00 0.00 0.00 0.00 0.00 0.00 0.00 0.00 0.00 0.00 0.00 0.00 0.00 0.00 0.00 0.00 0.00 0.00 0.00 0.00 0.00 0.00 0.00 0.00 0.00 0.00 0.00 0.00 0.00 0.00 0.00 0.00 0.00 0.00 0.00 0.00 0.00 0.00 0.00 0.02 0.01
0.00 0.00 0.00 0.00 0.00 0.00 0.00 0.00 0.00 0.00 0.00 0.00 0.00 0.00 0.00 0.00 0.00 0.00 0.00 0.00 0.00 0.00 0.00 0.00 0.00 0.00 0.00 0.00 0.00 0.00 0.00 0.00 0.00 0.00 0.00 0.00 0.00 0.00 0.00 0.02 0.00 0.00
0.00 0.00 0.00 0.00 0.00 0.00 0.00 0.00 0.00 0.00 0.00 0.00 0.00 0.00 0.00 0.00 0.00 0.00 0.00 0.00 0.00 0.00 0.00 0.00 0.00 0.00 0.00 0.00 0.00 0.00 0.00 0.00 0.00 0.00 0.00 0.00 0.00 0.00 0.00 0.00 0.00 0.00
0.00 0.00 0.00 0.00 0.00 0.00 0.00 0.00 0.00 0.00 0.00 0.00 0.00 0.00 0.00 0.00 0.00 0.00 0.00 0.00 0.00 0.00 0.00 0.00 0.00 0.00 0.00 0.00 0.00 0.00 0.00 0.00 0.00 0.00 0.00 0.00 0.00 0.00 0.00 0.00 0.00 0.00
0.00 0.00 0.00 0.00 0.00 0.00 0.00 0.00 0.00 0.00 0.00 0.00 0.00 0.00 0.00 0.00 0.00 0.00 0.00 0.00 0.00 0.00 0.00 0.00 0.00 0.00 0.00 0.00 0.00 0.00 0.00 0.00 0.00 0.00 0.00 0.00 0.00 0.00 0.00 0.00 0.00 0.00
0.00 0.00 0.00 0.00 0.00 0.00 0.00 0.00 0.00 0.00 0.00 0.00 0.00 0.00 0.00 0.00 0.00 0.00 0.00 0.00 0.00 0.00 0.00 0.00 0.00 0.00 0.00 0.00 0.00 0.00 0.00 0.00 0.00 0.00 0.00 0.00 0.00 0.00 0.00 0.00 0.00 0.00
0.00 0.00 0.00 0.00 0.00 0.00 0.00 0.00 0.00 0.00 0.00 0.00 0.00 0.00 0.00 0.00 0.00 0.00 0.00 0.00 0.00 0.00 0.00 0.00 0.00 0.00 0.00 0.00 0.00 0.00 0.00 0.00 0.00 0.00 0.00 0.00 0.00 0.00 0.00 0.00 0.00 0.00
0.03 0.00 0.00 0.00 0.00 0.00 0.00 0.00 0.00 0.00 0.00 0.00 0.00 0.00 0.00 0.00 0.00 0.00 0.00 0.00 0.00 0.00 0.00 0.00 0.00 0.00 0.00 0.00 0.00 0.00 0.00 0.00 0.00 0.00 0.00 0.00 0.00 0.00 0.00 0.00 0.00 0.00
0.03 0.02 0.00 0.00 0.00 0.00 0.00 0.00 0.00 0.00 0.00 0.00 0.00 0.00 0.00 0.00 0.00 0.00 0.01 0.00 0.00 0.00 0.00 0.00 0.00 0.00 0.00 0.00 0.00 0.00 0.00 0.00 0.01 0.00 0.00 0.00 0.00 0.00 0.00 0.00 0.00 0.00
0.01 0.02 0.03 0.01 0.01 0.00 0.00 0.00 0.00 0.00 0.00 0.00 0.00 0.00 0.00 0.00 0.00 0.00 0.00 0.00 0.00 0.00 0.00 0.00 0.00 0.00 0.00 0.00 0.00 0.00 0.00 0.00 0.00 0.00 0.00 0.00 0.00 0.00 0.00 0.00 0.00 0.03
0.01 0.02 0.29 0.20 0.06 0.12 0.00 0.00 0.00 0.00 0.00 0.00 0.00 0.00 0.00 0.00 0.00 0.00 0.00 0.00 0.00 0.00 0.00 0.00 0.00 0.00 0.00 0.00 0.00 0.00 0.00 0.00 0.00 0.00 0.00 0.00 0.00 0.00 0.00 0.00 0.00 0.00
0.03 0.09 0.12 0.15 0.30 0.36 0.08 0.01 0.02 0.00 0.00 0.00 0.00 0.00 0.00 0.00 0.00 0.00 0.00 0.00 0.00 0.00 0.00 0.00 0.01 0.00 0.00 0.01 0.01 0.00 0.00 0.00 0.00 0.00 0.00 0.00 0.00 0.00 0.00 0.00 0.00 0.00
0.00 0.00 0.06 0.32 0.22 0.34 0.36 0.04 0.02 0.03 0.03 0.11 0.10 0.00 0.00 0.00 0.00 0.00 0.00 0.00 0.01 0.00 0.00 0.00 0.00 0.00 0.00 0.02 0.08 0.08 0.00 0.00 0.00 0.00 0.00 0.00 0.00 0.00 0.00 0.00 0.01 0.01
0.01 0.00 0.00 0.01 0.07 0.13 0.20 0.40 0.33 0.51 0.59 0.51 0.50 0.43 0.01 0.00 0.01 0.01 0.00 0.00 0.00 0.01 0.00 0.00 0.00 0.04 0.08 0.11 0.14 0.09 0.11 0.04 0.03 0.00 0.02 0.03 0.04 0.05 0.00 0.00 0.00 0.00
0.02 0.00 0.00 0.00 0.00 0.00 0.05 0.20 0.37 0.51 0.49 0.46 0.43 0.40 0.36 0.15 0.00 0.00 0.00 0.00 0.00 0.00 0.00 0.00 0.02 0.04 0.19 0.46 0.19 0.11 0.19 0.11 0.04 0.08 0.16 0.10 0.04 0.04 0.00 0.00 0.00 0.00
0.04 0.02 0.00 0.00 0.00 0.00 0.00 0.08 0.29 0.42 0.41 0.40 0.30 0.28 0.13 0.18 0.02 0.02 0.00 0.00 0.00 0.01 0.00 0.01 0.37 0.26 0.55 0.50 0.08 0.00 0.00 0.04 0.06 0.05 0.04 0.07 0.08 0.01 0.00 0.00 0.00 0.00
0.03 0.03 0.02 0.01 0.00 0.01 0.01 0.02 0.06 0.22 0.20 0.30 0.16 0.27 0.33 0.26 0.10 0.04 0.03 0.02 0.08 0.06 0.17 0.13 0.19 0.36 0.06 0.05 0.00 0.00 0.00 0.00 0.01 0.05 0.03 0.12 0.03 0.00 0.00 0.00 0.00 0.00
0.05 0.06 0.03 0.01 0.00 0.01 0.02 0.02 0.02 0.03 0.14 0.24 0.37 0.44 0.39 0.24 0.28 0.40 0.23 0.24 0.10 0.13 0.22 0.40 0.25 0.07 0.05 0.05 0.00 0.00 0.00 0.00 0.02 0.03 0.02 0.04 0.09 0.02 0.00 0.00 0.00 0.00
0.12 0.20 0.07 0.04 0.03 0.02 0.02 0.03 0.05 0.05 0.05 0.12 0.27 0.27 0.48 0.29 0.14 0.11 0.28 0.19 0.11 0.31 0.28 0.08 0.40 0.11 0.02 0.00 0.00 0.00 0.00 0.00 0.00 0.03 0.03 0.03 0.01 0.03 0.02 0.00 0.00 0.00
0.23 0.45 0.28 0.11 0.04 0.04 0.04 0.05 0.05 0.06 0.06 0.06 0.06 0.06 0.05 0.07 0.04 0.08 0.17 0.22 0.22 0.25 0.08 0.14 0.02 0.00 0.00 0.00 0.00 0.00 0.00 0.00 0.00 0.03 0.05 0.05 0.12 0.06 0.10 0.02 0.01 0.01
0.06 0.23 0.29 0.34 0.14 0.05 0.05 0.07 0.07 0.07 0.07 0.08 0.08 0.07 0.06 0.05 0.04 0.03 0.01 0.13 0.28 0.36 0.35 0.43 0.07 0.24 0.00 0.00 0.00 0.00 0.01 0.00 0.01 0.10 0.11 0.11 0.43 0.25 0.06 0.03 0.05 0.16
0.06 0.21 0.39 0.45 0.24 0.16 0.07 0.05 0.08 0.10 0.11 0.17 0.32 0.18 0.09 0.08 0.05 0.03 0.02 0.01 0.01 0.01 0.01 0.01 0.00 0.00 0.06 0.06 0.00 0.00 0.01 0.01 0.04 0.32 0.30 0.41 0.48 0.66 0.58 0.25 0.24 0.40
0.06 0.07 0.23 0.38 0.28 0.12 0.21 0.40 0.25 0.18 0.15 0.26 0.26 0.28 0.19 0.17 0.07 0.05 0.04 0.03 0.02 0.01 0.00 0.00 0.00 0.00 0.26 0.42 0.58 0.17 0.05 0.02 0.06 0.22 0.41 0.21 0.38 0.71 0.79 0.12 0.25 0.13
0.07 0.11 0.13 0.20 0.51 1.08 0.89 0.50 0.30 0.36 0.42 0.30 0.34 0.31 0.26 0.14 0.08 0.05 0.04 0.05 0.05 0.06 0.05 0.04 0.03 0.02 0.03 0.12 0.12 0.25 0.16 0.43 0.71 0.15 0.22 0.19 0.20 0.31 0.17 0.66 0.60 0.29
MSLP
1015.34 1015.50 1015.86 1016.02 1016.02 1015.82 1015.86 1016.02 1015.90 1016.06 1016.10 1015.98 1016.14 1016.18 1016.14 1015.98 1015.86 1015.94 1015.94 1016.10 1016.38 1016.54 1016.62 1016.74 1016.74 1016.86 1016.78 1016.86 1016.90 1016.94 1017.02 1017.10 1016.94 1016.98 1016.74 1016.78 1016.62 1016.62 1016.82 1016.38 1016.54 1016.42
1015.18 1015.30 1015.46 1015.66 1015.86 1015.78 1015.70 1015.58 1015.70 1015.74 1015.94 1015.94 1015.66 1015.66 1015.66 1015.74 1015.86 1015.90 1016.02 1016.14 1016.22 1016.38 1016.38 1016.50 1016.62 1016.70 1016.74 1016.70 1016.82 1016.98 1016.98 1016.86 1017.18 1016.42 1016.78 1016.74 1016.54 1016.46 1016.30 1016.22 1016.14 1016.02
1015.02 1015.14 1015.34 1015.58 1015.54 1015.66 1015.58 1015.46 1015.50 1015.66 1015.66 1015.70 1015.54 1015.54 1015.58 1015.50 1015.70 1015.82 1015.86 1015.98 1016.06 1015.98 1016.22 1016.34 1016.38 1016.50 1016.54 1016.62 1016.70 1016.82 1016.82 1016.90 1016.98 1016.66 1016.86 1016.90 1016.42 1016.46 1016.26 1015.94 1016.06 1016.06
1014.86 1014.78 1014.90 1014.98 1014.90 1015.14 1015.22 1015.38 1015.54 1015.62 1015.46 1015.58 1015.62 1015.38 1015.42 1015.22 1015.42 1015.66 1015.82 1015.94 1015.98 1016.02 1015.90 1016.02 1016.18 1016.18 1016.30 1016.38 1016.58 1016.70 1016.58 1016.70 1016.54 1016.46 1016.66 1016.50 1016.38 1016.30 1016.18 1016.22 1015.98 1015.78
1014.42 1014.58 1014.50 1014.50 1014.50 1014.58 1014.82 1015.10 1015.22 1015.30 1015.38 1015.26 1015.18 1015.18 1015.34 1015.46 1015.46 1015.46 1015.66 1015.86 1015.98 1016.02 1015.98 1016.06 1016.06 1016.10 1016.10 1016.22 1016.38 1016.62 1016.50 1016.50 1016.34 1016.46 1016.70 1016.86 1016.50 1016.38 1016.14 1015.94 1016.14 1016.30
1013.94 1014.10 1014.26 1014.34 1014.34 1014.46 1014.58 1014.70 1014.86 1014.86 1014.94 1014.98 1015.06 1014.82 1015.02 1015.26 1015.50 1015.42 1015.42 1015.66 1015.66 1015.78 1015.66 1015.70 1015.86 1015.82 1015.86 1016.02 1016.22 1016.34 1016.22 1016.22 1015.98 1016.18 1016.62 1016.74 1016.50 1016.02 1015.78 1015.74 1016.02 1016.30
1013.66 1013.90 1014.02 1014.02 1014.14 1014.14 1014.42 1014.38 1014.38 1014.46 1014.46 1014.46 1014.46 1014.78 1014.66 1014.98 1015.30 1015.34 1015.30 1015.34 1015.34 1015.38 1015.42 1015.42 1015.62 1015.66 1015.54 1015.70 1016.02 1016.22 1016.18 1016.14 1016.06 1016.18 1016.50 1016.50 1016.46 1016.50 1016.06 1015.98 1016.18 1016.34
1013.18 1013.26 1013.62 1013.74 1013.94 1013.94 1014.18 1014.22 1014.18 1014.26 1014.26 1014.34 1014.54 1014.42 1014.46 1014.66 1014.86 1014.94 1015.06 1015.18 1015.22 1015.26 1015.26 1015.18 1015.38 1015.58 1015.54 1015.50 1015.86 1016.10 1016.18 1015.82 1015.98 1016.18 1016.42 1016.50 1016.42 1016.58 1016.38 1016.18 1016.06 1016.38
1012.78 1012.98 1013.22 1013.54 1013.66 1013.70 1013.86 1013.86 1013.86 1013.98 1013.94 1014.22 1014.34 1014.18 1014.14 1014.42 1014.50 1014.62 1014.90 1015.02 1015.18 1015.22 1015.26 1015.34 1015.38 1015.50 1015.42 1015.50 1015.62 1015.86 1016.02 1015.82 1015.42 1015.70 1016.10 1016.34 1016.42 1016.46 1016.38 1016.10 1016.22 1016.26
1013.34 1012.90 1012.90 1013.14 1013.42 1013.38 1013.54 1013.42 1013.42 1013.62 1013.62 1013.94 1013.98 1013.94 1013.98 1014.10 1014.26 1014.34 1014.62 1014.94 1015.22 1015.34 1015.42 1015.38 1015.38 1015.42 1015.38 1015.34 1015.54 1015.58 1015.74 1015.86 1015.70 1015.66 1015.66 1015.78 1015.94 1016.02 1015.98 1015.98 1016.14 1016.22
1013.02 1012.86 1013.02 1013.14 1013.10 1013.10 1013.14 1013.10 1013.26 1013.26 1013.26 1013.62 1013.74 1013.86 1013.78 1013.70 1014.02 1014.22 1014.66 1014.86 1015.10 1015.22 1015.30 1015.34 1015.30 1015.30 1015.34 1015.30 1015.10 1015.06 1015.30 1015.46 1015.58 1015.66 1015.74 1015.78 1015.74 1015.78 1015.78 1015.90 1015.94 1016.06
1012.82 1012.94 1013.38 1014.06 1013.74 1013.38 1012.94 1012.94 1012.90 1012.98 1013.14 1013.18 1013.30 1013.66 1013.66 1013.66 1013.70 1013.90 1014.22 1014.70 1014.82 1014.90 1014.94 1015.06 1015.10 1015.06 1015.14 1015.10 1014.90 1014.78 1014.98 1015.18 1015.22 1015.38 1015.50 1015.58 1015.58 1015.58 1015.62 1015.58 1015.70 1015.78
1012.98 1013.10 1013.50 1013.58 1013.94 1014.74 1014.54 1013.38 1012.82 1012.70 1012.90 1013.10 1012.78 1013.18 1013.50 1013.62 1013.50 1013.66 1013.90 1014.14 1014.42 1014.58 1014.70 1014.78 1014.82 1014.78 1014.90 1014.94 1014.86 1014.74 1014.86 1014.98 1015.06 1015.10 1015.22 1015.30 1015.30 1015.30 1015.30 1015.26 1015.26 1015.30
1013.14 1012.90 1013.18 1013.38 1013.70 1013.82 1013.74 1014.02 1013.98 1013.42 1013.02 1012.70 1012.66 1012.94 1013.22 1013.38 1013.30 1013.42 1013.54 1013.74 1013.94 1014.18 1014.34 1014.46 1014.70 1014.70 1014.62 1014.82 1014.94 1014.78 1014.78 1014.86 1014.82 1014.94 1014.98 1015.02 1015.06 1015.06 1015.10 1015.18 1015.22 1015.18
1012.66 1012.78 1012.86 1013.22 1013.54 1013.82 1013.94 1013.78 1013.62 1013.78 1014.14 1014.58 1014.70 1013.06 1012.74 1012.94 1013.06 1013.14 1013.34 1013.58 1013.62 1013.90 1014.02 1014.06 1014.14 1014.26 1014.14 1014.34 1015.06 1015.38 1014.82 1014.86 1015.02 1014.94 1015.10 1015.26 1015.18 1015.02 1014.98 1015.10 1015.30 1015.46
1012.70 1012.94 1013.02 1013.14 1013.38 1013.70 1013.94 1013.94 1013.82 1013.82 1013.90 1014.10 1014.86 1015.06 1013.34 1013.14 1013.66 1013.38 1013.26 1013.34 1013.46 1013.70 1014.10 1013.98 1013.90 1014.26 1014.86 1015.42 1015.90 1015.50 1015.46 1015.46 1015.26 1014.82 1015.02 1015.50 1015.98 1016.14 1015.38 1015.30 1015.22 1015.18
1012.78 1013.02 1013.06 1013.34 1013.42 1013.58 1013.62 1013.74 1013.98 1014.02 1014.06 1014.26 1014.30 1014.58 1015.42 1014.74 1013.86 1013.58 1013.54 1013.38 1013.38 1013.34 1013.42 1013.54 1013.58 1014.54 1014.62 1015.02 1015.10 1015.34 1015.38 1015.26 1015.18 1015.34 1015.46 1015.98 1016.14 1015.90 1015.66 1015.46 1015.14 1015.06
1012.78 1012.94 1013.10 1013.22 1013.42 1013.62 1013.66 1013.70 1013.78 1014.02 1014.30 1014.46 1014.54 1014.62 1014.26 1014.66 1015.54 1014.90 1014.06 1013.70 1013.54 1013.38 1013.46 1014.06 1015.46 1015.66 1015.74 1015.46 1015.18 1015.30 1015.10 1014.86 1014.86 1015.14 1015.34 1015.62 1015.78 1015.38 1015.38 1015.30 1015.38 1015.30
1012.70 1012.90 1013.02 1013.10 1013.30 1013.46 1013.58 1013.82 1013.98 1014.10 1014.26 1014.38 1014.50 1014.34 1014.46 1014.82 1015.10 1015.74 1015.78 1014.74 1014.02 1014.54 1015.34 1015.70 1015.42 1015.70 1015.78 1016.02 1015.70 1015.26 1015.18 1014.86 1014.70 1014.98 1015.42 1015.94 1015.34 1014.86 1015.02 1015.18 1015.26 1015.42
1012.70 1012.86 1013.02 1013.10 1013.14 1013.22 1013.42 1013.78 1013.98 1014.18 1014.18 1014.30 1014.42 1014.42 1014.66 1014.74 1014.82 1015.06 1015.58 1015.90 1015.90 1016.14 1016.70 1016.38 1016.22 1016.22 1016.18 1015.82 1015.78 1015.86 1015.70 1015.30 1014.86 1014.86 1014.94 1015.10 1014.98 1014.74 1014.62 1014.86 1015.06 1015.30
1012.58 1012.86 1012.94 1012.86 1012.94 1013.02 1013.26 1013.50 1013.78 1013.94 1014.10 1014.26 1014.38 1014.66 1014.74 1014.82 1014.98 1015.14 1015.06 1015.18 1015.34 1015.54 1015.94 1015.82 1015.82 1016.26 1016.50 1016.38 1016.18 1016.10 1016.02 1015.74 1014.98 1014.66 1014.74 1014.62 1014.50 1014.66 1014.74 1014.78 1014.94 1015.10
1012.94 1013.18 1013.34 1013.06 1012.94 1013.14 1013.30 1013.42 1013.50 1013.70 1014.10 1014.22 1014.46 1014.54 1014.54 1014.58 1014.58 1014.54 1014.66 1014.90 1015.18 1015.38 1015.54 1015.78 1016.34 1016.50 1016.18 1016.18 1016.22 1016.10 1016.10 1015.70 1015.14 1015.02 1014.90 1014.98 1014.78 1014.74 1014.94 1014.82 1014.78 1015.10
1012.38 1013.14 1013.34 1013.14 1013.02 1013.14 1013.22 1013.30 1013.38 1013.54 1013.78 1014.10 1014.54 1014.54 1014.58 1014.54 1014.42 1014.66 1014.62 1014.78 1015.10 1015.34 1015.58 1015.90 1016.18 1016.70 1016.54 1016.22 1015.98 1015.94 1015.98 1015.82 1015.54 1015.94 1015.82 1015.46 1014.98 1014.98 1015.02 1015.06 1014.94 1015.10
1012.46 1012.66 1012.98 1013.06 1013.34 1013.26 1013.02 1013.10 1013.34 1013.42 1013.62 1013.78 1014.34 1014.58 1014.58 1014.42 1014.50 1014.74 1014.82 1014.82 1014.98 1015.18 1015.26 1015.74 1016.38 1016.94 1016.86 1016.70 1016.38 1016.14 1015.90 1015.82 1015.78 1016.10 1016.50 1016.74 1016.30 1015.62 1015.50 1015.62 1015.62 1015.86
1012.74 1012.86 1013.18 1013.34 1013.42 1013.18 1013.02 1013.06 1013.22 1013.42 1013.50 1013.58 1014.06 1014.34 1014.58 1014.58 1014.74 1015.14 1015.18 1015.18 1015.26 1015.50 1015.50 1015.82 1016.34 1016.86 1016.98 1016.78 1016.62 1016.50 1016.26 1016.06 1016.02 1016.10 1016.42 1016.38 1016.58 1016.62 1016.54 1016.54 1016.50 1016.42
1013.26 1013.30 1013.38 1013.50 1013.62 1013.66 1013.62 1013.62 1013.34 1013.14 1013.54 1013.86 1014.14 1014.34 1014.58 1014.82 1014.94 1015.22 1015.54 1015.70 1015.66 1015.82 1015.98 1016.10 1016.58 1016.98 1017.06 1016.90 1016.82 1016.74 1016.74 1016.34 1016.06 1016.42 1016.58 1016.30 1016.06 1016.34 1016.66 1016.74 1016.86 1016.74
Thickness
5789 5789 5788 5787 5788 5789 5789 5789 5789 5788 5788 5788 5789 5788 5789 5790 5791 5791 5791 5791 5789 5788 5788 5788 5787 5787 5787 5788 5788 5788 5788 5788 5787 5789 5791 5791 5791 5792 5791 5793 5793 5792
5791 5791 5790 5789 5788 5789 5790 5791 5791 5790 5789 5790 5792 5793 5793 5793 5792 5792 5792 5792 5791 5790 5790 5789 5789 5788 5789 5790 5789 5789 5789 5788 5789 5791 5790 5790 5793 5794 5793 5795 5795 5795
5791 5791 5790 5790 5790 5790 5791 5792 5792 5791 5792 5792 5793 5794 5794 5795 5794 5793 5793 5793 5792 5793 5791 5791 5791 5790 5790 5790 5790 5790 5790 5788 5789 5791 5790 5790 5793 5794 5795 5797 5797 5798
5791 5792 5793 5793 5794 5794 5793 5792 5791 5791 5792 5793 5793 5794 5795 5796 5797 5794 5794 5793 5793 5793 5794 5793 5793 5792 5792 5792 5790 5789 5790 5790 5791 5792 5791 5791 5793 5793 5794 5796 5796 5798
5793 5794 5794 5795 5796 5796 5796 5794 5793 5793 5794 5794 5795 5797 5796 5795 5795 5795 5794 5794 5793 5793 5794 5794 5793 5793 5793 5792 5791 5790 5791 5792 5793 5793 5790 5789 5792 5794 5796 5797 5795 5795
5796 5796 5795 5796 5797 5797 5797 5796 5796 5796 5796 5797 5797 5798 5798 5796 5795 5795 5795 5794 5794 5794 5795 5795 5794 5795 5795 5793 5792 5791 5792 5793 5795 5794 5790 5789 5792 5794 5797 5797 5795 5794
5797 5797 5797 5797 5798 5798 5798 5798 5799 5799 5799 5800 5800 5799 5799 5797 5795 5796 5796 5796 5795 5795 5796 5796 5795 5795 5796 5795 5792 5791 5792 5793 5794 5793 5791 5790 5791 5792 5795 5796 5794 5793
5799 5800 5798 5799 5799 5798 5798 5798 5799 5800 5800 5800 5800 5800 5800 5799 5798 5797 5796 5796 5796 5796 5796 5796 5796 5795 5795 5796 5794 5792 5792 5794 5795 5793 5791 5791 5791 5790 5792 5794 5794 5793
5800 5801 5801 5800 5800 5800 5800 5801 5801 5801 5801 5800 5800 5801 5801 5800 5800 5799 5797 5796 5795 5795 5795 5795 5795 5795 5796 5796 5795 5793 5792 5794 5796 5796 5793 5792 5791 5790 5792 5793 5793 5792
5797 5800 5802 5801 5801 5802 5801 5802 5803 5804 5803 5802 5801 5802 5803 5802 5802 5800 5798 5796 5795 5794 5794 5795 5795 5795 5796 5796 5796 5795 5794 5794 5795 5796 5795 5794 5793 5792 5793 5793 5793 5792
5796 5798 5799 5798 5800 5803 5803 5803 5804 5804 5804 5804 5803 5802 5803 5804 5803 5801 5799 5796 5795 5794 5794 5794 5795 5796 5796 5796 5798 5798 5797 5796 5796 5795 5794 5794 5794 5793 5793 5794 5793 5792
5796 5797 5794 5792 5793 5795 5798 5802 5804 5804 5804 5804 5804 5802 5802 5804 5804 5802 5801 5798 5796 5796 5796 5796 5796 5797 5797 5797 5798 5799 5799 5797 5797 5796 5795 5794 5794 5794 5795 5795 5794 5793
5793 5793 5792 5791 5789 5787 5790 5795 5800 5803 5805 5805 5807 5805 5802 5803 5804 5803 5802 5801 5799 5798 5797 5797 5797 5798 5798 5797 5798 5799 5799 5798 5797 5796 5796 5796 5795 5796 5795 5795 5796 5795
5791 5791 5791 5790 5788 5787 5787 5789 5793 5797 5799 5801 5804 5805 5804 5803 5804 5804 5804 5803 5802 5801 5800 5799 5798 5798 5799 5798 5796 5797 5798 5797 5797 5796 5795 5795 5796 5796 5795 5795 5795 5795
5790 5789 5790 5788 5787 5787 5786 5786 5788 5790 5790 5790 5791 5798 5804 5804 5803 5804 5804 5804 5803 5801 5800 5800 5799 5798 5799 5796 5792 5792 5794 5794 5794 5795 5794 5792 5792 5793 5794 5793 5792 5792
5787 5786 5787 5787 5785 5784 5784 5784 5785 5787 5788 5786 5783 5787 5794 5798 5798 5800 5801 5802 5804 5802 5799 5800 5800 5797 5794 5791 5786 5786 5789 5790 5791 5793 5792 5788 5785 5787 5789 5790 5790 5790
5784 5783 5783 5784 5783 5783 5784 5783 5783 5783 5783 5784 5783 5783 5785 5787 5789 5793 5797 5799 5800 5801 5801 5799 5796 5792 5789 5788 5786 5785 5786 5789 5789 5790 5789 5785 5782 5784 5786 5787 5787 5788
5781 5780 5780 5781 5781 5781 5782 5782 5782 5782 5780 5780 5780 5781 5781 5781 5779 5781 5788 5792 5796 5798 5796 5791 5785 5781 5780 5781 5783 5783 5784 5787 5789 5787 5785 5783 5784 5786 5786 5786 5785 5785
5778 5777 5776 5778 5778 5779 5779 5779 5778 5779 5778 5778 5778 5778 5778 5777 5775 5773 5775 5779 5784 5784 5778 5777 5776 5773 5772 5774 5777 5779 5781 5784 5787 5786 5783 5782 5784 5787 5787 5785 5784 5782
5774 5774 5774 5775 5776 5776 5777 5775 5775 5775 5775 5775 5775 5774 5773 5772 5772 5772 5770 5771 5774 5770 5766 5769 5770 5767 5766 5770 5772 5772 5774 5779 5783 5784 5784 5783 5784 5786 5786 5784 5783 5781
5770 5770 5770 5773 5773 5773 5774 5773 5773 5773 5772 5771 5771 5768 5768 5769 5768 5768 5768 5769 5770 5767 5765 5768 5766 5761 5761 5763 5765 5766 5769 5772 5778 5781 5783 5784 5783 5783 5783 5783 5781 5779
5765 5763 5764 5767 5768 5768 5769 5769 5770 5770 5768 5767 5765 5763 5764 5765 5765 5766 5767 5767 5765 5763 5762 5762 5759 5756 5757 5758 5760 5762 5764 5767 5773 5776 5777 5779 5780 5780 5779 5779 5779 5776
5763 5760 5759 5761 5763 5763 5764 5764 5765 5765 5765 5762 5759 5758 5758 5759 5761 5762 5763 5762 5761 5759 5758 5757 5754 5751 5752 5755 5757 5759 5760 5762 5765 5766 5766 5768 5772 5774 5773 5773 5774 5773
5761 5758 5757 5757 5758 5759 5760 5760 5759 5759 5760 5758 5754 5752 5752 5753 5755 5755 5755 5756 5756 5755 5754 5754 5750 5746 5745 5749 5752 5754 5756 5757 5758 5758 5757 5757 5760 5764 5766 5765 5764 5763
5755 5754 5753 5753 5753 5754 5755 5756 5756 5756 5756 5753 5750 5747 5746 5746 5746 5746 5746 5748 5748 5748 5749 5749 5745 5740 5740 5744 5747 5748 5748 5751 5753 5753 5751 5752 5753 5752 5755 5757 5755 5754
5748 5748 5747 5747 5747 5747 5748 5749 5751 5752 5749 5746 5744 5742 5740 5739 5739 5737 5737 5738 5740 5740 5740 5740 5738 5735 5734 5738 5741 5741 5741 5745 5748 5746 5744 5747 5749 5747 5747 5749 5748 5747